This is the latest recevied weather packets stored in our database for station/object KJ7IVE-13. If no packets are shown the sender has not sent any weather packets the latest 10 day(s).
| Time | Temp. | Humidity | Pressure | Rain* | Wind** | Luminosity | Snow |
|---|---|---|---|---|---|---|---|
| 1788135971 | 80° F | 10% | 763.3 mmHg | 0 in | - | 129 W/m² | - |
| 1788135667 | 80° F | 10% | 763.4 mmHg | 0 in | - | 131 W/m² | - |
| 1788135362 | 80° F | 10% | 763.3 mmHg | 0 in | - | 147 W/m² | - |
| 1788135058 | 81° F | 10% | 763.2 mmHg | 0 in | - | 157 W/m² | - |
| 1788134755 | 80° F | 10% | 763.3 mmHg | 0 in | - | 163 W/m² | - |
| 1788134454 | 80° F | 10% | 763.4 mmHg | 0 in | - | 191 W/m² | - |
| 1788134153 | 80° F | 10% | 763.3 mmHg | 0 in | - | 186 W/m² | - |
| 1788133848 | 81° F | 10% | 763.3 mmHg | 0 in | - | 195 W/m² | - |
| 1788133543 | 80° F | 10% | 763.7 mmHg | 0 in | - | 211 W/m² | - |
| 1788133238 | 80° F | 10% | 763.3 mmHg | 0 in | - | 233 W/m² | - |
| 1788132933 | 80° F | 10% | 763.4 mmHg | 0 in | - | 223 W/m² | - |
| 1788132630 | 80° F | 10% | 763.6 mmHg | 0 in | - | 236 W/m² | - |
| 1788132325 | 80° F | 10% | 763.6 mmHg | 0 in | - | 262 W/m² | - |
| 1788132021 | 80° F | 10% | 763.6 mmHg | 0 in | - | 258 W/m² | - |
| 1788131717 | 80° F | 10% | 763.6 mmHg | 0 in | - | 294 W/m² | - |
| 1788131416 | 79° F | 10% | 763.4 mmHg | 0 in | - | 334 W/m² | - |
| 1788131111 | 80° F | 10% | 763.4 mmHg | 0 in | - | 355 W/m² | - |
| 1788130811 | 80° F | 10% | 763.4 mmHg | 0 in | - | 358 W/m² | - |
| 1788130507 | 80° F | 10% | 763.3 mmHg | 0 in | - | 376 W/m² | - |
| 1788130206 | 80° F | 10% | 763.6 mmHg | 0 in | - | 387 W/m² | - |
| 1788129904 | 79° F | 10% | 763.6 mmHg | 0 in | - | 408 W/m² | - |
| 1788129602 | 80° F | 10% | 763.4 mmHg | 0 in | - | 429 W/m² | - |
| 1788129299 | 80° F | 10% | 763.6 mmHg | 0 in | - | 422 W/m² | - |
| 1788128997 | 80° F | 10% | 763.7 mmHg | 0 in | - | 427 W/m² | - |
| 1788128692 | 80° F | 10% | 763.6 mmHg | 0 in | - | 403 W/m² | - |
* Rain latest hour (hover to see other rain measurements)
** Current wind speed in m/s (hover to see current wind gust speed)